Location: Blanot
(47.1713°N, 4.2340°E)
Time: 08:47:00
(UTC+00:00)

Cosmos 2100 Rocket - Pass Details

Date: 14 July 2020
Orbit: 955 x 1002 km, 82.9° (Epoch: 14 August)

Event Time Altitude Azimuth Distance (km) Brightness Sun altitude
Exits shadow 00:45:06 29° 162° (SSE) 1,709 4.8 -20.0°
Maximum altitude 00:48:17 61° 93° (E) 1,108 4.3 -19.9°
Drops below altitude 10° 00:54:25 10° 15° (NNE) 2,725 7.6 -19.6°
Sets 00:56:56 0° 12° (NNE) 3,670 8.7 -19.5°
